Location: Unspecified
(51.0000°N, 12.0000°E)
Time: 18:35:37
(UTC+01:00)

ISS - Pass Details

Date: 07 January 2018
Orbit: 402 x 407 km, 51.6° (Epoch: 19 January)

Event Time Altitude Azimuth Distance (km) Brightness Sun altitude
Exits shadow 07:29:00 - 282° (WNW) 1,605 -1.4 -6.8°
Reaches altitude 10° 07:29:20 10° 281° (W) 1,470 -1.6 -6.8°
Maximum altitude 07:32:34 59° 201° (SSW) 476 -3.4 -6.3°
Drops below altitude 10° 07:35:49 10° 121° (ESE) 1,467 0.9 -5.9°
Sets 07:37:55 0° 118° (ESE) 2,327 3.0 -5.6°
